TimeCST,TemperatureF,Dew PointF,Humidity,Sea Level PressureIn,VisibilityMPH,Wind Direction,Wind SpeedMPH,Gust SpeedMPH,PrecipitationIn,Events,Conditions,WindDirDegrees,DateUTC
12:54 AM,39.0,33.1,79,30.14,10.0,East,4.6,-,N/A,,Clear,90,2012-12-06 06:54:00
1:54 AM,36.0,32.0,86,30.14,10.0,Calm,Calm,-,N/A,,Clear,0,2012-12-06 07:54:00
2:54 AM,35.1,32.0,89,30.12,10.0,Calm,Calm,-,N/A,,Clear,0,2012-12-06 08:54:00
3:54 AM,32.0,28.9,88,30.11,10.0,Calm,Calm,-,N/A,,Clear,0,2012-12-06 09:54:00
4:54 AM,35.1,30.9,85,30.09,10.0,East,4.6,-,N/A,,Clear,100,2012-12-06 10:54:00
5:54 AM,37.9,32.0,79,30.09,10.0,East,3.5,-,N/A,,Mostly Cloudy,90,2012-12-06 11:54:00
6:54 AM,34.0,30.9,89,30.11,10.0,Calm,Calm,-,N/A,,Mostly Cloudy,0,2012-12-06 12:54:00
7:54 AM,39.9,35.1,83,30.09,10.0,East,3.5,-,N/A,,Overcast,100,2012-12-06 13:54:00
8:54 AM,43.0,35.1,74,30.07,10.0,ESE,4.6,-,N/A,,Overcast,120,2012-12-06 14:54:00
9:54 AM,46.0,36.0,68,30.07,10.0,Calm,Calm,-,N/A,,Mostly Cloudy,0,2012-12-06 15:54:00
10:54 AM,48.0,37.0,66,30.04,10.0,ESE,3.5,-,N/A,,Overcast,120,2012-12-06 16:54:00
11:54 AM,52.0,37.0,57,30.00,10.0,Variable,3.5,-,N/A,,Overcast,0,2012-12-06 17:54:00
12:54 PM,55.0,37.0,51,29.97,10.0,SE,4.6,-,N/A,,Overcast,130,2012-12-06 18:54:00
1:54 PM,55.0,41.0,59,29.95,10.0,NE,5.8,-,N/A,,Overcast,50,2012-12-06 19:54:00
2:54 PM,55.0,39.9,57,29.95,10.0,Calm,Calm,-,N/A,,Overcast,0,2012-12-06 20:54:00
3:54 PM,53.1,39.0,59,29.95,10.0,SE,5.8,-,N/A,,Clear,130,2012-12-06 21:54:00
4:54 PM,52.0,39.0,61,29.94,10.0,Calm,Calm,-,N/A,,Overcast,0,2012-12-06 22:54:00
5:54 PM,50.0,39.9,68,29.93,10.0,East,4.6,-,N/A,,Mostly Cloudy,100,2012-12-06 23:54:00
6:54 PM,48.0,41.0,77,29.95,10.0,East,3.5,-,N/A,,Overcast,90,2012-12-07 00:54:00
7:54 PM,48.0,41.0,77,29.96,10.0,Calm,Calm,-,N/A,,Partly Cloudy,0,2012-12-07 01:54:00
8:54 PM,45.0,39.9,82,29.95,10.0,Calm,Calm,-,N/A,,Clear,0,2012-12-07 02:54:00
9:54 PM,41.0,37.9,89,29.95,10.0,Calm,Calm,-,N/A,,Mostly Cloudy,0,2012-12-07 03:54:00
10:54 PM,42.1,39.0,89,29.94,10.0,Calm,Calm,-,N/A,,Overcast,0,2012-12-07 04:54:00
11:54 PM,42.1,39.0,89,29.93,10.0,Calm,Calm,-,N/A,,Clear,0,2012-12-07 05:54:00